Date String (YYYY-MM-DD hh:mm:ss) UTC,Instrument flags,absolute air pressure of the measurement (hPa),sample flow rate (lpm),inlet stack bypass flow (lpm),air temperature of the measurement (°C),ambient temperature measured by the external sensor (°C),aerosol sample conditioner tube jacket temperature (°C),OPC LED temperature (°C),internal box temperature (°C),relative humidity of the measurement (%),span deviation,mass concentration of particles derived from Lorenz-Mie calculation of OPC scattering (μg/m³),mass concentration of particles derived from Lorenz-Mie calculation of OPC scattering (μg/m³),mass concentration of particles derived from Lorenz-Mie calculation of OPC scattering (μg/m³)
DateTimeUTC,F1_M11,P_M11,Q1_M11,Q2_M11,T1_M11,T2_M11,T3_M11,T4_M11,T5_M11,U1_M11,ZSPAN_M11,X0_M11,X2_M11,X1_M11
2023-09-29 21:00:00,SystemResetWarning,0827.7,5.00,000.00,028.1,026.7,000.0,036.4,030.0,18.7,0000.0,0017.72,0005.80,0004.31
2023-09-29 21:01:00,SystemResetWarning,0827.7,5.00,000.00,028.1,027.0,000.0,036.5,030.0,18.5,0000.0,0017.25,0005.85,0004.31
2023-09-29 21:02:00,SystemResetWarning,0827.8,4.99,000.00,028.2,026.9,000.0,036.5,030.1,18.7,0000.0,0017.62,0005.88,0004.31
2023-09-29 21:03:00,SystemResetWarning,0827.8,4.99,000.00,028.2,025.4,000.0,036.4,029.9,18.1,0000.0,0017.41,0005.85,0004.30
2023-09-29 21:04:00,SystemResetWarning,0827.7,5.01,000.00,028.1,024.2,000.0,036.4,029.7,17.7,0000.0,0017.88,0005.88,0004.30
2023-09-29 21:05:00,SystemResetWarning,0827.7,5.01,000.00,028.0,024.4,000.0,036.3,029.6,17.9,0000.0,0018.56,0005.94,0004.29
2023-09-29 21:06:00,SystemResetWarning,0827.7,4.99,000.00,027.9,024.7,000.0,036.4,029.5,18.0,0000.0,0018.33,0005.90,0004.31
2023-09-29 21:07:00,SystemResetWarning,0827.7,5.00,000.00,027.9,025.2,000.0,036.4,029.6,18.0,0000.0,0016.95,0005.84,0004.31
2023-09-29 21:08:00,SystemResetWarning,0827.7,5.01,000.00,027.9,025.6,000.0,036.4,029.7,18.0,0000.0,0016.49,0005.76,0004.31
2023-09-29 21:09:00,SystemResetWarning,0827.7,5.00,000.00,028.0,026.0,000.0,036.4,029.7,18.1,0000.0,0016.52,0005.72,0004.30
2023-09-29 21:10:00,SystemResetWarning,0827.7,5.00,000.00,028.0,026.3,000.0,036.4,029.8,18.5,0000.0,0016.58,0005.71,0004.30
2023-09-29 21:11:00,SystemResetWarning,0827.7,5.00,000.00,028.0,026.6,000.0,036.4,029.9,18.5,0000.0,0016.35,0005.75,0004.30
2023-09-29 21:12:00,SystemResetWarning,0827.7,5.00,000.00,028.1,026.9,000.0,036.5,030.0,18.4,0000.0,0016.61,0005.76,0004.30
2023-09-29 21:13:00,SystemResetWarning,0827.7,5.00,000.00,028.2,027.0,000.0,036.5,030.1,18.2,0000.0,0017.08,0005.75,0004.31
2023-09-29 21:14:00,SystemResetWarning,0827.7,4.99,000.00,028.2,025.7,000.0,036.4,029.9,18.1,0000.0,0017.64,0005.78,0004.33
2023-09-29 21:15:00,SystemResetWarning,0827.7,5.01,000.00,028.1,024.3,000.0,036.4,029.7,18.1,0000.0,0018.02,0005.75,0004.34
2023-09-29 21:16:00,SystemResetWarning,0827.7,5.01,000.00,028.0,024.3,000.0,036.3,029.6,18.1,0000.0,0018.03,0005.68,0004.34
2023-09-29 21:17:00,SystemResetWarning,0827.6,5.00,000.00,027.9,024.6,000.0,036.3,029.5,18.3,0000.0,0019.22,0005.70,0004.33
2023-09-29 21:18:00,SystemResetWarning,0827.6,5.00,000.00,027.9,025.0,000.0,036.4,029.5,18.2,0000.0,0019.94,0005.78,0004.33
2023-09-29 21:19:00,SystemResetWarning,0827.6,5.00,000.00,027.9,025.4,000.0,036.4,029.6,18.3,0000.0,0020.85,0005.84,0004.34
2023-09-29 21:20:00,SystemResetWarning,0827.6,5.00,000.00,027.9,025.9,000.0,036.4,029.7,18.2,0000.0,0020.97,0005.88,0004.35
2023-09-29 21:21:00,SystemResetWarning,0827.6,4.99,000.00,027.9,026.2,000.0,036.4,029.8,18.1,0000.0,0021.51,0005.93,0004.36
2023-09-29 21:22:00,SystemResetWarning,0827.6,5.00,000.00,028.0,026.5,000.0,036.4,029.8,18.1,0000.0,0021.39,0005.95,0004.35
2023-09-29 21:23:00,SystemResetWarning,0827.6,5.00,000.00,028.0,026.8,000.0,036.4,029.9,18.0,0000.0,0020.63,0005.97,0004.36
2023-09-29 21:24:00,SystemResetWarning,0827.7,5.00,000.00,028.1,027.0,000.0,036.4,030.0,17.7,0000.0,0020.01,0005.99,0004.36
2023-09-29 21:25:00,SystemResetWarning,0827.7,5.00,000.00,028.2,026.9,000.0,036.5,030.1,17.7,0000.0,0019.86,0005.98,0004.35
2023-09-29 21:26:00,SystemResetWarning,0827.6,4.99,000.00,028.1,025.3,000.0,036.4,029.9,17.8,0000.0,0020.80,0006.00,0004.36
2023-09-29 21:27:00,SystemResetWarning,0827.6,5.01,000.00,028.1,024.2,000.0,036.4,029.7,18.1,0000.0,0020.86,0005.99,0004.37
2023-09-29 21:28:00,SystemResetWarning,0827.5,5.02,000.00,028.0,024.4,000.0,036.3,029.6,18.3,0000.0,0020.30,0006.01,0004.38
2023-09-29 21:29:00,SystemResetWarning,0827.5,4.99,000.00,027.9,024.8,000.0,036.3,029.5,18.6,0000.0,0019.57,0005.98,0004.38
2023-09-29 21:30:00,SystemResetWarning,0827.6,4.99,000.00,027.9,025.2,000.0,036.4,029.6,18.8,0000.0,0019.11,0005.98,0004.38
2023-09-29 21:31:00,SystemResetWarning,0827.5,5.00,000.00,027.9,025.6,000.0,036.4,029.7,18.8,0000.0,0018.56,0005.95,0004.37
2023-09-29 21:32:00,SystemResetWarning,0827.5,5.00,000.00,028.0,026.0,000.0,036.4,029.7,18.6,0000.0,0017.77,0005.91,0004.37
2023-09-29 21:33:00,SystemResetWarning,0827.6,5.01,000.00,028.0,026.4,000.0,036.4,029.8,18.4,0000.0,0018.41,0005.91,0004.38
2023-09-29 21:34:00,SystemResetWarning,0827.6,5.00,000.00,028.0,026.6,000.0,036.4,029.9,18.3,0000.0,0019.06,0005.84,0004.36
2023-09-29 21:35:00,SystemResetWarning,0827.6,5.00,000.00,028.1,026.9,000.0,036.4,030.0,18.3,0000.0,0019.50,0005.79,0004.36
2023-09-29 21:36:00,SystemResetWarning,0827.6,5.01,000.00,028.2,027.0,000.0,036.5,030.1,18.2,0000.0,0020.10,0005.76,0004.35
2023-09-29 21:37:00,SystemResetWarning,0827.5,4.98,000.00,028.2,025.6,000.0,036.4,029.9,18.4,0000.0,0019.04,0005.75,0004.33
2023-09-29 21:38:00,SystemResetWarning,0827.5,5.01,000.00,028.1,024.3,000.0,036.4,029.7,18.4,0000.0,0018.74,0005.74,0004.33
2023-09-29 21:39:00,SystemResetWarning,0827.5,5.01,000.00,028.0,024.4,000.0,036.3,029.7,18.3,0000.0,0019.54,0005.72,0004.32
2023-09-29 21:40:00,SystemResetWarning,0827.6,5.00,000.00,027.9,024.7,000.0,036.3,029.5,18.3,0000.0,0020.34,0005.67,0004.32
2023-09-29 21:41:00,SystemResetWarning,0827.5,5.00,000.00,027.9,025.2,000.0,036.3,029.6,18.4,0000.0,0020.66,0005.65,0004.31
2023-09-29 21:42:00,SystemResetWarning,0827.5,5.00,000.00,027.9,025.6,000.0,036.4,029.6,18.5,0000.0,0020.20,0005.63,0004.29
2023-09-29 21:43:00,SystemResetWarning,0827.5,4.99,000.00,027.9,026.0,000.0,036.4,029.7,18.7,0000.0,0020.05,0005.59,0004.29
2023-09-29 21:44:00,SystemResetWarning,0827.5,5.00,000.00,028.0,026.3,000.0,036.4,029.8,18.7,0000.0,0020.88,0005.57,0004.28
2023-09-29 21:45:00,SystemResetWarning,0827.6,5.00,000.00,028.0,026.6,000.0,036.4,029.9,18.6,0000.0,0021.09,0005.52,0004.28
2023-09-29 21:46:00,SystemResetWarning,0827.7,5.00,000.00,028.1,026.9,000.0,036.4,030.0,18.5,0000.0,0021.21,0005.58,0004.28
2023-09-29 21:47:00,SystemResetWarning,0827.7,4.98,000.00,028.2,027.1,000.0,036.5,030.1,18.4,0000.0,0021.47,0005.59,0004.28
2023-09-29 21:48:00,SystemResetWarning,0827.7,5.00,000.00,028.2,026.0,000.0,036.4,030.0,18.5,0000.0,0020.48,0005.62,0004.29
2023-09-29 21:49:00,SystemResetWarning,0827.7,5.00,000.00,028.1,024.4,000.0,036.4,029.7,18.4,0000.0,0020.45,0005.68,0004.29
2023-09-29 21:50:00,SystemResetWarning,0827.6,5.00,000.00,028.0,024.3,000.0,036.3,029.7,18.8,0000.0,0019.59,0005.69,0004.29
2023-09-29 21:51:00,SystemResetWarning,0827.6,5.02,000.00,028.0,024.6,000.0,036.3,029.5,19.0,0000.0,0017.72,0005.68,0004.27
2023-09-29 21:52:00,SystemResetWarning,0827.6,4.99,000.00,027.9,025.0,000.0,036.4,029.5,19.1,0000.0,0018.47,0005.71,0004.24
2023-09-29 21:53:00,SystemResetWarning,0827.6,4.99,000.00,027.9,025.5,000.0,036.4,029.6,19.0,0000.0,0019.80,0005.76,0004.23
2023-09-29 21:54:00,SystemResetWarning,0827.6,5.00,000.00,027.9,025.9,000.0,036.4,029.7,18.9,0000.0,0021.47,0005.79,0004.23
2023-09-29 21:55:00,SystemResetWarning,0827.7,5.01,000.00,028.0,026.2,000.0,036.4,029.8,18.3,0000.0,0021.33,0005.81,0004.22
2023-09-29 21:56:00,SystemResetWarning,0827.7,5.00,000.00,028.0,026.6,000.0,036.4,029.9,18.3,0000.0,0022.41,0005.80,0004.21
2023-09-29 21:57:00,SystemResetWarning,0827.7,5.00,000.00,028.1,026.8,000.0,036.4,030.0,18.5,0000.0,0021.78,0005.77,0004.19
2023-09-29 21:58:00,SystemResetWarning,0827.7,5.00,000.00,028.1,027.1,000.0,036.4,030.0,18.6,0000.0,0021.50,0005.76,0004.18
2023-09-29 21:59:00,SystemResetWarning,0827.7,4.99,000.00,028.2,026.4,000.0,036.4,030.0,18.5,0000.0,0022.44,0005.75,0004.17
